This demonstration page uses our WeatherBlox Daily Observations layout. Learn more.

Left ArrowRight Arrow

Hourly Observations for June 3, 2020

Temp ( °F °C ) Dew Point ( °F °C ) Humidity (%) Winds ( mph kmh ) Pressure ( in mb ) Visibility ( mi km ) Precip ( " mm )
12:53 am 00:53 Clear 78 25.6 60 15.6 54 54 SE 15 24 29.88 1012 10 16 0.00 0.00
1:53 am 01:53 Clear 77 25 61 16.1 58 58 SE 15 24 29.87 1012 10 16 0.00 0.00
2:53 am 02:53 Clear 76 24.4 61 16.1 60 60 SE 12 19 29.87 1011 10 16 0.00 0.00
3:53 am 03:53 Clear 74 23.3 61 16.1 64 64 SE 8 13 29.86 1011 10 16 0.00 0.00
4:53 am 04:53 Clear 72 22.2 62 16.7 71 71 ESE 6 9 29.85 1011 10 16 0.00 0.00
5:53 am 05:53 Clear 71 21.7 62 16.7 73 73 ESE 7 11 29.86 1011 10 16 0.00 0.00
6:53 am 06:53 Sunny 70 21.1 62 16.7 76 76 ESE 5 7 29.88 1012 10 16 0.00 0.00
7:53 am 07:53 Sunny 72 22.2 64 17.8 76 76 ESE 10 17 29.87 1012 10 16 0.00 0.00
8:53 am 08:53 Sunny 75 23.9 65 18.3 71 71 SE 9 15 29.89 1012 10 16 0.00 0.00
9:53 am 09:53 Sunny 79 26.1 65 18.3 62 62 SE 10 17 29.89 1012 10 16 0.00 0.00
10:53 am 10:53 Sunny 83 28.3 64 17.8 53 53 SE 9 15 29.88 1012 10 16 0.00 0.00
11:53 am 11:53 Sunny 87 30.6 61 16.1 42 42 VRB 7 11 29.87 1012 10 16 0.00 0.00
12:53 pm 12:53 Sunny 90 32.2 59 15 35 35 SE 10 17 29.86 1011 10 16 0.00 0.00
1:53 pm 13:53 Sunny 94 34.4 57 13.9 29 29 E 14 22 29.83 1010 10 16 0.00 0.00
2:53 pm 14:53 Sunny 94 34.4 57 13.9 29 29 E 9 15 29.80 1009 10 16 0.00 0.00
3:53 pm 15:53 Sunny 97 36.1 56 13.3 25 25 ESE 8 13 29.78 1008 10 16 0.00 0.00
4:53 pm 16:53 Mostly Cloudy 96 35.6 54 12.2 24 24 SE 8 13 29.76 1008 10 16 0.00 0.00
5:53 pm 17:53 Partly Cloudy 96 35.6 53 11.7 23 23 ESE 8 13 29.74 1007 10 16 0.00 0.00
6:53 pm 18:53 Sunny 96 35.6 52 11.1 23 23 SE 8 13 29.73 1007 10 16 0.00 0.00
7:53 pm 19:53 Sunny 95 35 52 11.1 23 23 SE 9 15 29.72 1006 10 16 0.00 0.00
8:53 pm 20:53 Sunny 91 32.8 53 11.7 27 27 SE 10 17 29.72 1007 10 16 0.00 0.00
9:53 pm 21:53 Clear 88 31.1 53 11.7 30 30 SE 10 17 29.73 1007 10 16 0.00 0.00
10:53 pm 22:53 Clear 85 29.4 54 12.2 35 35 SE 10 17 29.76 1008 10 16 0.00 0.00
11:53 pm 23:53 Clear 84 28.9 57 13.9 40 40 SSE 13 20 29.77 1008 10 16 0.00 0.00

Powered by AerisWeather